Other Public Products
Issued by NWS Grand Forks, ND

Home | Current Version | Previous Version | Graphics & Text | Print | Product List | Glossary On
Versions: 1 2 3 4 5 6 7 8 9 10 11 12 13 14 15 16 17 18 19 20 21 22 23 24 25 26 27 28 29 30 31 32 33 34 35 36 37 38 39 40 41 42 43 44 45 46 47 48 49 50
000
FPUS83 KFGF 301731
OPUFGF
PRAIRIE TO PINES WEATHER ROUNDUP
NATIONAL WEATHER SERVICE EASTERN NORTH DAKOTA/GRAND FORKS ND
1200 PM CDT SAT AUG 30 2014

 **SATELLITE DATA USED TO AUGMENT SKY COVER AT AUTOMATED STATIONS**
 *****  WEATHER ACROSS EASTERN NORTH DAKOTA  *****

CITY           SKY/WX    TMP DP  RH WIND       PRES   REMARKS
GRAND FORKS    MOSUNNY   67  54  63 VRB5      29.92S
GRAND FORKS AF SUNNY     65  56  73 SE3       29.93F
GRAND CITY NWS   N/A     68 N/A N/A E2          N/A
BUXTON           N/A     68  57  68 CALM        N/A
DEVILS LAKE    SUNNY     63  48  59 SE7       29.91F
FARGO          CLOUDY    64  57  78 VRB3      29.91F
WAHPETON ARPT  CLOUDY    61  55  82 CALM      29.91S
$$

 *****  WEATHER ACROSS CENTRAL AND WESTERN NORTH DAKOTA  *****

CITY           SKY/WX    TMP DP  RH WIND       PRES   REMARKS
JAMESTOWN      MOSUNNY   65  53  65 VRB5      29.92F
BISMARCK       SUNNY     66  54  65 S10       29.91F
MINOT          SUNNY     67  48  50 SE14      29.87F
MINOT AFB      SUNNY     66  51  58 S14       29.86F
GARRISON         N/A     66  52  60 S10       29.88F
WILLISTON      MOSUNNY   70  55  59 S13       29.80F
DICKINSON      SUNNY     66  55  67 SE22      29.84F
HETTINGER      SUNNY     68  54  60 SE18      29.86F
$$

 *****  OTHER OBSERVATIONS NORTHEAST NORTH DAKOTA  *****

CITY           SKY/WX    TMP DP  RH WIND       PRES   REMARKS
WALHALLA       FAIR      63  48  59 E3        29.93F
LANGDON        FAIR      66  45  45 S8        29.92F
CAVALIER       FAIR      64  50  59 CALM      29.92F
GRAFTON        FAIR      64  46  52 CALM      29.92F
CANDO          FAIR      63  46  55 SE9       29.92F
FORT TOTTEN    NOT AVBL
ROLLA          FAIR      63  46  55 SE8       29.92F
RUGBY          FAIR      63  48  59 SE9       29.90F
 ***** THE ABOVE OBSERVATIONS ARE NON NWS ARE NOT QUALITY
        CONTROLLED AND MAY MIS-REPORT RAIN FOR SNOW...
$$

 *****  OTHER OBSERVATIONS SOUTHEAST NORTH DAKOTA *****

CITY           SKY/WX    TMP DP  RH WIND       PRES   REMARKS
COOPERSTOWN    NOT AVBL
VALLEY CITY    FAIR      66  55  68 E7        29.93S
OAKES            N/A     66  57  72 NE7       29.92F
GWINNER        MOSUNNY   66  57  72 NE6       29.92F
SHEYENNE NWR     N/A     64  57  79 NE6       29.95
BUFFALO          N/A     68  49  51 CALM        N/A
WYNDMERE       NOT AVBL
 ***** THE ABOVE OBSERVATIONS ARE NON NWS ARE NOT QUALITY
       CONTROLLED AND MAY MIS-REPORT RAIN FOR SNOW...
$$

  *****  WEATHER ACROSS NORTHERN MINNESOTA  *****

CITY           SKY/WX    TMP DP  RH WIND       PRES   REMARKS
FLAG ISLAND    CLOUDY    61  52  72 N6        29.92F
WARROAD        MOSUNNY   64  55  72 NE7       29.93F
ROSEAU         SUNNY     66  54  63 SE6       29.91F
HALLOCK        SUNNY     66  46  48 CALM      29.91F
THF RVR FALLS  MOSUNNY   64  54  68 E6        29.92S
HALSTAD          N/A     69  54  58 E3          N/A
FOSSTON        MOSUNNY   66  55  68 NE5       29.92S
BAUDETTE       MOSUNNY   65  53  65 E6        29.92F
WASKISH        CLOUDY    64  55  72 NE7       29.92S
CROOKSTON      SUNNY     66  54  63 E3        29.92S
$$
  *****  WEATHER ACROSS CENTRAL AND WEST MINNESOTA  *****

CITY           SKY/WX    TMP DP  RH WIND       PRES   REMARKS
BEMIDJI        CLOUDY    60  55  83 N5        29.91F
PARK RAPIDS    CLOUDY    60  56  86 N8        29.91S
WADENA         CLOUDY    63  57  82 NE5       29.90S
DETROIT LAKES  CLOUDY    63  57  82 NE5       29.91F
MOORHEAD       CLOUDY    63  61  94 N6        29.91F
FERGUS FALLS   CLOUDY    63  57  82 NW6       29.90S
ELBOW LAKE     CLOUDY    62  59  91 NW6       29.90S
MORRIS MN      PTSUNNY   64  63  94 NW9       29.89F
STAPLES        CLOUDY    61  57  88 NE5       29.90R
WHEATON        CLOUDY    61  55  82 NW6       29.92F
$$
  *****  WEATHER ELSEWHERE ACROSS MINNESOTA  *****

CITY           SKY/WX    TMP DP  RH WIND       PRES   REMARKS
DULUTH         CLOUDY    67  60  78 VRB3      29.87S
INTRNTL FALLS  MOSUNNY   65  52  62 NE9       29.91F
ELY            CLOUDY    61  55  82 NE7       29.90S
CLOQUET        CLOUDY    66  61  82 NE6       29.87S
BRAINERD       CLOUDY    62  60  93 N5        29.89S
HIBBING        CLOUDY    64  57  78 NE8       29.89
ALEXANDRIA     CLOUDY    65  60  84 NE3       29.91S
SAINT CLOUD    CLOUDY    71  62  73 VRB3      29.87S
MINNEAPOLIS    PTSUNNY   72  61  68 N6        29.85S
$$

  *****  WEATHER ACROSS SOUTH DAKOTA  *****

CITY           SKY/WX    TMP DP  RH WIND       PRES   REMARKS
SIOUX FALLS    CLOUDY    65  61  87 NW5       29.94S
BROOKINGS      NOT AVBL
WATERTOWN      CLOUDY    61  57  87 W3        29.93S
HURON          CLOUDY    65  57  75 VRB3      29.93F
SISSETON         N/A     64  58  80 NW9       29.91S
ABERDEEN       MOSUNNY   64  56  75 E5        29.93S
MITCHELL       CLOUDY    63  58  83 W3        29.95F
PIERRE         SUNNY     67  57  70 SE9       29.91F
MOBRIDGE       SUNNY     65  57  75 SE8       29.90F
RAPID CITY     SUNNY     72  58  61 S14       29.85F
$$

  *****  SOME WEATHER IN NEARBY STATES *****

CITY           SKY/WX    TMP DP  RH WIND       PRES   REMARKS
GLASGOW MT     LGT RAIN  59  58  96 E6        29.76F
GREAT FALLS MT CLOUDY    69  42  37 W18G24    29.81S
CHEYENNE WY    SUNNY     76  43  30 SW14      30.08F
SCOTTSBLUFF NE SUNNY     79  53  40 VRB7      29.94F
OMAHA NE       CLOUDY    71  65  81 N5        29.95F
DES MOINES IA  PTSUNNY   78  68  71 W9        29.90S
DAVENPORT IA   CLOUDY    76  67  73 W13       29.89R
CHICAGO IL     PTSUNNY   79  66  64 SW18G26   29.85F
EAU CLAIRE WI  CLOUDY    72  66  81 N5        29.81R
LA CROSSE WI   CLOUDY    76  66  71 MISG      29.80S
$$

  *****  SOME NATIONAL WEATHER *****

CITY           SKY/WX    TMP DP  RH WIND       PRES   REMARKS
LA GUARDIA NY  PTSUNNY   75  58  55 S9        30.23F
RALEIGH NC     PTSUNNY   85  71  63 VRB3      30.22F HX  90
ATLANTA GA     PTSUNNY   86  71  60 S6        30.16F HX  91
NEW ORLEANS LA TSTM      76  73  91 SW14G24   30.08S VSB 1
OKLAHOMA CITY  MOSUNNY   90  63  40 CALM      29.97S HX  91
ALBUQUERQUE NM PTSUNNY   77  44  30 CALM      30.20S
SALT LAKE CITY CLOUDY    78  39  24 S10       29.95R
LOS ANGELES CA MOSUNNY   74  63  68 CALM      29.85S
BOISE ID       MOSUNNY   69  43  38 NW8       29.93R
SEATTLE WA     LGT RAIN  60  58  92 CALM      29.93S
$$

*** WEATHER ACROSS MANITOBA...SASKATCHEWAN AND ONTARIO ***
                ***ONTARIO***

CITY           SKY/WX    TMP DP  RH WIND       PRES   REMARKS
GERALDTON      PTSUNNY   64  55  72 N8        29.89S
THUNDER BAY    PTSUNNY   64  59  82 NE10      29.86F
SIOUX LOOKOUT  PTSUNNY   61  52  72 NE3       29.94F
TORONTO        PTSUNNY   79  64  61 SE10      29.99F
BIG TROUT LK   MOSUNNY   57  37  47 W7        29.95F
PICKLE LAKE    PTSUNNY   59  43  55 N5        29.96F
DRYDEN         PTSUNNY   63  52  67 E7        29.94F
KENORA         PTSUNNY   59  50  72 VRB2      29.95F
$$
                *** MANITOBA***

CITY           SKY/WX    TMP DP  RH WIND       PRES   REMARKS
BRANDON        MOSUNNY   64  48  55 SE10      29.91F
DAUPHIN        SUNNY     68  52  56 S8        29.87F
ISLAND LAKE    MOSUNNY   59  39  47 CALM      29.96F
PILOT MOUND      N/A     63  48  59 SE9         N/A
THE PAS        PTSUNNY   64  48  55 SE17      29.79F
THOMPSON       PTSUNNY   61  46  59 SW5       29.87F
WINNIPEG       MOSUNNY   64  46  52 VRB2      29.94F
LYNN LAKE      SUNNY     61  41  48 MISG      29.81F
CHURCHILL      MOSUNNY   55  41  58 NW13      29.83R
GILLAM         PTSUNNY   57  41  54 W10       29.89F
$$
                ***SASKATCHEWAN***

CITY           SKY/WX    TMP DP  RH WIND       PRES   REMARKS
ESTEVAN        CLOUDY    68  54  60 SE16G23   29.80F
KINDERSLEY     MOSUNNY   64  54  68 W15G22    29.66R
LLOYDMINSTER   CLOUDY    57  50  77 NW14G21   29.64S
PRINCE ALBERT  CLOUDY    61  55  82 S12G18    29.59F
REGINA         CLOUDY    64  59  82 SE16G24   29.71F


USA.gov is the U.S. government's official web portal to all federal, state and local government web resources and services.